Location: Domont
(49.0278°N, 2.3264°E)
Time: 01:10:13
(UTC+00:00)

ZACube-1 - Pass Details

Date: 04 July 2022
Orbit: 582 x 661 km, 97.6° (Epoch: 08 August)

Event Time Altitude Azimuth Distance (km) Brightness Sun altitude
Rises 03:03:57 0° 22° (NNE) 2,960 ? -6.7°
Reaches altitude 10° 03:06:23 10° 33° (NNE) 2,057 ? -6.4°
Maximum altitude 03:10:21 30° 95° (E) 1,170 ? -6.0°
Drops below altitude 10° 03:14:20 10° 157° (SSE) 2,069 ? -5.5°
Sets 03:16:47 0° 168° (SSE) 2,980 ? -5.2°
